NOAA 16 DEB, 41302

Orbit data source: Space-Track

NOAA 16 DEB, 41302 is space debris in SSO originally from a launch on Thu, 21 Sep 2000 UTC launched from the Air Force Western Test Range (AFWTR). Debris objects in space refer to the collection of defunct objects orbiting the Earth. Examples of debris include non-operational satellites, rocket bodies, and fragments generated from explosions, collisions, or faulty payload assembly.

Loading next visibility...
Identifier
41302, 2000-055HE
Orbit
SSO
Country
Flag of USUS
Related business
Manufacturer
Unknown
Mission
Spacecraft
Bus & Motor
Unknown
Mass
Unknown
Launch date (UTC)
2000-09-21 (25 years ago)
Launch vehicle
Unknown
Launch site
Air Force Western Test Range (AFWTR)
Object type
Payload
Rocket body
Debris
Shape & HBR
Unknown shape, 0.1 m
Radar Cross Section
Small (<0.1 m²)

Expand to show TLE details & history
Last TLE update: 2 days ago

TLE from 2 days ago
0 NOAA 16 DEB
1 41302U 00055HE  26036.62077413  .00006501  00000-0  28062-2 0  9999
2 41302  98.7184  99.5334 0021770 222.9972 136.9506 14.24653232520270
Epoch: 2026-02-05T14:53Z
TLE epoch observation values (Epoch: 2026-02-05T14:53:54.884Z)
Latitude
-0.00008°
Longitude
100.28435°
Altitude
824.032 km
Speed
7.435 km/s
True Right ascension
06h 38m 08s
True Declination
0° 00' 00"
Sunlit
Object was in full shadow at epoch
Visualization orbit readout
Latitude
Unknown
Longitude
Unknown
Altitude
Unknown
Speed
Unknown
Apparent Right ascension
Unknown
Apparent Declination
Unknown
Sunlit
N/A
Visualization observer readout
Local Sidereal Time
14:03:06
Azimuth
Unknown
Elevation
Unknown
Doppler factor
Unknown
Orbital elements
Apogee altitude
822.453 km
Perigee altitude
791.17 km
Semi-major axis
7,184.949 km
Eccentricity
0.00218
Inclination
98.7184°
RAAN
99.5334°
Arg. of periapsis
222.9972°
True anomaly
137.12055°
Mean anomaly
136.9506°
Eccentric anomaly
137.03561°
Mean motion
3.56375 °/min
Orbital period
101.02 mins
BSTAR
0.0028062
Loading maneuver chart data...
Computing Atmospheric mass density...
Loading historical data...
Loading historical data...
Loading historical data...
Loading historical data...
Loading historical data...
Loading historical data...
Loading historical data...

Documentation

Showing up to 5 results
|